[Date Prev][Date Next][Thread Prev][Thread Next] - [Date Index][Thread Index][Author Index]

2 Line ISS Keps 2-21



ISS
1 25544U 98067A   05051.97214120  .00030380  00000-0  24994-3 0  8586
2 25544  51.6459 135.2662 0004494 123.0485 216.9215 15.70120778357404
----
Via the sarex mailing list at AMSAT.ORG courtesy of AMSAT-NA.
To unsubscribe, send "unsubscribe sarex" to Majordomo@amsat.org



AMSAT Top AMSAT Home